Вернуться в каталог

FENGYUN 1C DEB

АктивенSSO
NORAD 31814·DEBRIS·🇨🇳 China

Запущен May 10, 1999 с Taiyuan Satellite Launch Center

Loading…

Ближайшие Пролёты (ближайшие 24 часа)

TLE

СвежийSource: Space-Track

Эпоха: Sep 13, 2026, 09:48 UTC

1 31814U 99025CHC 26256.40875427  .00000382  00000-0  42886-3 0  9994
2 31814  99.5412 307.9367 0228843 229.8977 128.1910 13.66731280655516

Отслеживайте FENGYUN 1C DEB в реальном времени с AllMySat

Download on the App Store